Stations météo

Publicité
Pau, France (7610): Température de l'air & dewpoint: 16.09.2018 05:00:00 - 22.09.2018 05:00:00 (CEST)Pau, France (7610): Température de l'air 5cm: 16.09.2018 05:00:00 - 22.09.2018 05:00:00 (CEST)Pau, France (7610): Température de l'air -20cm & Température de l'air -100cm: 16.09.2018 05:00:00 - 22.09.2018 05:00:00 (CEST)Pau, France (7610): Vitesse du vent & gusts: 16.09.2018 05:00:00 - 22.09.2018 05:00:00 (CEST)Pau, France (7610): Direction du vent: 16.09.2018 05:00:00 - 22.09.2018 05:00:00 (CEST)Pau, France (7610): reduced air pressure: 16.09.2018 05:00:00 - 22.09.2018 05:00:00 (CEST)Pau, France (7610): visibility: 16.09.2018 05:00:00 - 22.09.2018 05:00:00 (CEST)Pau, France (7610): Ensoleillement: 16.09.2018 05:00:00 - 22.09.2018 05:00:00 (CEST)Pau, France (7610): Quantités de précipitations: 16.09.2018 05:00:00 - 22.09.2018 05:00:00 (CEST)
Date & Time tt [°C] td [°C] tt 5cm [°C] tt -20cm [°C] tt -100cm [°C] ff [km/h] ff [knt] fx [km/h] fx [knt] dd ppp [hPa] vv [km] sd [min] rr [mm]
22.09.2018 05:00:00 - - - - - - - - - - - - - -
22.09.2018 04:00:00 17,9 15,0 17,6 22,3 20,1 6 4 9 5 ESE 1024,1 56 0 0,0
22.09.2018 03:00:00 17,8 15,6 17,6 22,3 20,1 6 3 11 6 NNE 1024,3 58 0 0,0
22.09.2018 02:00:00 17,9 15,7 17,7 22,4 20,1 6 3 9 5 N 1024,5 57 0 0,0
22.09.2018 01:00:00 17,9 15,3 17,8 22,4 20,1 5 3 7 4 NNE 1024,7 60 0 0,0
22.09.2018 00:00:00 18,0 15,6 17,8 22,5 20,1 4 2 12 6 ENE 1024,7 60 0 0,0
21.09.2018 23:00:00 18,1 16,3 17,8 22,5 20,1 6 4 17 9 N 1024,6 60 0 0,0
21.09.2018 22:00:00 18,5 16,7 18,1 22,5 20,1 8 5 19 10 NNW 1024,1 42 0 0,0
21.09.2018 21:00:00 19,5 16,7 19,1 22,5 20,1 14 8 22 12 NNW 1023,6 34 0 0,0
21.09.2018 20:00:00 20,7 15,7 20,0 22,4 20,1 15 8 31 17 WNW 1022,7 19 0 0,0
21.09.2018 19:00:00 22,2 15,8 22,5 22,4 20,1 16 9 38 20 WNW 1021,9 45 37 0,0
21.09.2018 18:00:00 24,1 15,0 25,8 22,3 20,1 23 13 39 21 WNW 1021,3 29 47 0,0
21.09.2018 17:00:00 25,4 14,5 26,8 22,3 20,1 26 14 40 22 WNW 1020,9 19 37 0,0
21.09.2018 16:00:00 25,7 14,8 29,6 22,2 20,1 21 12 31 17 W 1019,9 35 42 0,0
21.09.2018 15:00:00 25,4 14,8 29,7 22,2 20,1 16 9 29 16 W 1020,1 36 43 0,0
21.09.2018 14:00:00 25,0 15,3 29,2 22,2 20,1 14 8 28 15 WNW 1020,4 18 55 0,0
21.09.2018 13:00:00 24,0 15,8 27,5 22,2 20,1 15 8 27 14 WNW 1020,9 19 34 0,0
21.09.2018 12:00:00 23,0 16,1 24,2 22,2 20,1 11 6 22 12 W 1020,9 26 24 0,0
21.09.2018 11:00:00 21,6 17,6 22,5 22,3 20,1 11 6 20 11 WSW 1020,7 16 7 0,0
21.09.2018 10:00:00 20,7 17,5 22,3 22,3 20,1 9 5 14 8 W 1020,2 14 30 0,0
21.09.2018 09:00:00 19,8 17,6 18,7 22,4 20,1 4 2 10 5 S 1019,2 12 31 0,0
21.09.2018 08:00:00 19,1 17,4 18,7 22,4 20,1 7 4 11 6 S 1018,7 13 0 0,0
21.09.2018 07:00:00 18,9 17,6 16,9 22,5 20,1 5 3 8 4 SSE 1018,0 12 0 0,0
21.09.2018 06:00:00 17,9 16,9 14,7 22,6 20,1 0 0 9 5 N 1017,8 8 0 0,0
21.09.2018 05:00:00 18,3 17,0 16,7 22,6 20,1 5 3 12 6 SW 1017,9 13 0 0,0
21.09.2018 04:00:00 18,1 16,9 16,8 22,7 20,1 5 3 10 5 SW 1017,9 12 0 0,0
21.09.2018 03:00:00 17,9 16,9 14,9 22,7 20,1 8 4 17 9 SW 1017,6 14 0 0,0
21.09.2018 02:00:00 17,7 16,0 15,7 22,8 20,1 9 5 21 11 SW 1017,8 13 0 0,0
21.09.2018 01:00:00 18,6 16,7 17,3 22,8 20,1 13 7 23 12 WSW 1018,0 17 0 0,0
21.09.2018 00:00:00 19,3 16,7 18,2 22,8 20,1 11 6 30 16 W 1017,7 19 0 0,0
20.09.2018 23:00:00 20,6 17,4 17,5 22,8 20,1 16 9 24 13 W 1017,1 17 0 0,0
20.09.2018 22:00:00 21,6 17,8 17,5 22,7 20,1 4 2 7 4 SW 1016,0 32 0 0,0
20.09.2018 21:00:00 23,6 18,0 18,5 22,6 20,1 3 2 8 5 W 1015,1 29 0 0,0
20.09.2018 20:00:00 28,2 17,7 22,8 22,5 20,1 5 3 9 5 SW 1014,5 39 38 0,0
20.09.2018 19:00:00 31,2 16,0 34,1 22,4 20,1 3 2 9 5 WNW 1014,5 42 60 0,0
20.09.2018 18:00:00 32,2 15,7 37,6 22,3 20,1 3 1 13 7 ENE 1014,7 37 60 0,0
20.09.2018 17:00:00 32,7 16,1 39,0 22,1 20,0 6 4 16 9 SSE 1015,1 37 60 0,0
20.09.2018 16:00:00 31,9 16,6 39,1 22,0 20,0 6 3 20 11 E 1015,7 20 60 0,0
20.09.2018 15:00:00 30,8 17,1 38,0 21,9 20,0 7 4 25 13 NE 1016,5 44 60 0,0
20.09.2018 14:00:00 29,3 18,1 36,2 21,9 20,0 9 5 18 10 N 1017,3 19 60 0,0
20.09.2018 13:00:00 26,8 18,1 33,9 21,9 20,1 6 3 16 9 NNE 1018,4 30 60 0,0
20.09.2018 12:00:00 24,7 17,2 30,6 22,0 20,0 5 3 21 11 SE 1019,2 28 60 0,0
20.09.2018 11:00:00 22,4 17,3 27,7 22,1 20,0 5 3 11 6 SSE 1019,8 20 60 0,0
20.09.2018 10:00:00 20,2 17,0 21,2 22,1 20,0 3 2 10 5 E 1020,3 15 60 0,0
20.09.2018 09:00:00 17,2 16,1 13,9 22,2 20,0 4 2 6 3 E 1020,6 11 42 0,2
20.09.2018 08:00:00 15,6 14,6 13,7 22,3 20,0 2 1 9 5 E 1021,0 10 0 0,0
20.09.2018 07:00:00 16,0 15,0 13,6 22,4 20,0 6 4 8 4 SE 1021,0 9 0 0,0
20.09.2018 06:00:00 16,1 15,0 13,2 22,5 20,0 3 2 6 3 ESE 1021,3 12 0 0,0
20.09.2018 05:00:00 17,3 16,3 12,8 22,5 20,0 5 3 7 4 SSW 1021,4 13 0 0,0
20.09.2018 04:00:00 17,1 15,6 13,1 22,6 20,0 3 2 8 5 SW 1021,8 13 0 0,0
20.09.2018 03:00:00 17,6 15,8 14,1 22,6 20,0 6 4 11 6 W 1022,0 18 0 0,0
20.09.2018 02:00:00 17,9 15,9 15,4 22,7 20,0 6 3 14 8 WSW 1022,0 18 0 0,0
20.09.2018 01:00:00 18,6 16,2 16,0 22,7 20,0 8 5 14 8 SW 1022,1 20 0 0,0
20.09.2018 00:00:00 19,0 16,4 16,2 22,7 20,0 7 4 11 6 W 1022,0 20 0 0,0
19.09.2018 23:00:00 20,1 16,7 18,0 22,7 20,0 9 5 16 9 W 1021,6 23 0 0,0
19.09.2018 22:00:00 21,4 17,8 18,3 22,7 20,0 12 7 18 10 W 1021,0 24 0 0,0
19.09.2018 21:00:00 22,8 18,6 18,9 22,6 20,0 4 2 13 7 NW 1020,2 28 0 0,0
19.09.2018 20:00:00 24,8 18,0 21,8 22,5 20,0 8 5 19 11 WNW 1019,9 12 40 0,0
19.09.2018 19:00:00 27,6 18,3 27,9 22,4 20,0 11 6 23 12 NW 1019,4 35 48 0,0
19.09.2018 18:00:00 28,6 19,0 31,0 22,2 20,0 8 4 21 11 N 1018,9 31 56 0,0
19.09.2018 17:00:00 29,0 18,1 35,5 22,1 20,0 10 5 21 11 N 1019,0 20 60 0,0
19.09.2018 16:00:00 28,9 19,0 36,1 22,0 20,0 9 5 23 12 NW 1019,2 20 60 0,0
19.09.2018 15:00:00 28,8 18,6 36,2 21,9 20,0 8 4 18 10 NW 1019,5 27 60 0,0
19.09.2018 14:00:00 27,4 18,9 35,5 21,8 20,0 7 4 19 10 ENE 1019,9 20 60 0,0
19.09.2018 13:00:00 25,9 17,5 34,2 21,9 20,0 3 2 14 7 S 1020,7 45 60 0,0
19.09.2018 12:00:00 24,5 17,7 30,0 21,9 20,0 6 4 14 8 SE 1021,0 24 60 0,0
19.09.2018 11:00:00 22,6 17,5 24,7 22,0 20,0 3 2 10 5 SE 1021,5 19 39 0,0
19.09.2018 10:00:00 20,5 17,5 22,2 22,0 20,0 2 1 8 4 E 1021,2 19 45 0,0
19.09.2018 09:00:00 18,6 17,6 14,9 22,1 20,0 3 2 6 3 SE 1020,8 11 34 0,0
19.09.2018 08:00:00 17,2 16,1 14,9 22,1 20,0 3 2 8 4 SE 1020,4 10 0 0,0
19.09.2018 07:00:00 17,9 16,8 16,1 22,2 20,0 4 2 8 4 SSW 1020,1 17 0 0,0
19.09.2018 06:00:00 18,3 17,5 17,2 22,2 20,0 5 3 12 6 SSW 1020,2 14 0 0,0
19.09.2018 05:00:00 18,3 17,3 17,2 22,3 20,0 9 5 22 12 WSW 1020,3 9 0 0,0
19.09.2018 04:00:00 18,6 17,3 18,3 22,3 20,0 13 7 21 12 W 1020,1 11 0 0,0
19.09.2018 03:00:00 18,4 17,2 17,0 22,4 20,0 5 3 10 6 W 1020,0 18 0 0,0
19.09.2018 02:00:00 18,5 17,0 17,2 22,4 20,0 6 3 13 7 SSE 1019,8 15 0 0,0
19.09.2018 01:00:00 18,7 17,0 16,2 22,5 20,0 5 3 13 7 S 1020,0 21 0 0,0
19.09.2018 00:00:00 19,1 17,2 17,5 22,5 20,0 9 5 18 10 WSW 1019,7 20 0 0,0
18.09.2018 23:00:00 20,0 17,2 19,1 22,5 20,0 16 9 27 14 WSW 1019,3 25 0 0,0
18.09.2018 22:00:00 21,2 17,2 19,9 22,4 20,0 12 7 24 13 WSW 1018,4 29 0 0,0
18.09.2018 21:00:00 22,1 17,5 20,4 22,4 20,0 10 5 22 12 W 1017,4 29 0 0,0
18.09.2018 20:00:00 25,5 17,4 21,9 22,3 20,0 6 3 18 10 NW 1015,9 37 28 0,0
18.09.2018 19:00:00 27,7 17,2 29,9 22,1 20,0 12 6 22 12 NNW 1015,2 37 60 0,0
18.09.2018 18:00:00 28,6 16,5 30,5 22,0 20,0 13 7 22 12 N 1014,7 36 56 0,0
18.09.2018 17:00:00 29,7 16,1 34,9 21,8 19,9 12 6 21 11 N 1014,5 18 60 0,0
18.09.2018 16:00:00 29,0 16,9 36,0 21,7 20,0 - - - - - 1014,8 43 60 0,0
18.09.2018 15:00:00 28,2 18,0 33,5 21,6 20,0 12 7 26 14 N 1015,3 30 57 0,0
18.09.2018 14:00:00 27,2 18,8 33,8 21,6 20,0 11 6 19 10 NW 1015,5 29 57 0,0
18.09.2018 13:00:00 26,6 18,2 33,6 21,6 19,9 6 4 15 8 NW 1015,7 20 58 0,0
18.09.2018 12:00:00 25,3 17,5 33,2 21,6 20,0 4 2 12 6 WNW 1016,4 14 60 0,0
18.09.2018 11:00:00 23,8 17,3 23,4 21,7 20,0 - - - - - 1016,7 28 53 0,0
18.09.2018 10:00:00 20,5 16,5 20,1 21,8 20,0 - - - - - 1016,8 34 16 0,0
18.09.2018 09:00:00 18,0 15,1 14,3 21,8 19,9 - - - - - 1016,4 19 23 0,0
18.09.2018 08:00:00 16,1 14,3 12,6 21,9 19,9 4 2 9 5 S 1016,2 26 0 0,0
18.09.2018 07:00:00 16,1 14,3 13,5 22,0 20,0 4 2 9 5 E 1015,7 27 0 0,0
18.09.2018 06:00:00 17,4 14,7 14,6 22,0 19,9 8 4 11 6 SE 1015,5 26 0 0,0
18.09.2018 05:00:00 17,4 14,9 14,2 22,1 19,9 5 3 8 4 ESE 1015,5 26 0 0,0
18.09.2018 04:00:00 17,8 15,1 15,9 22,2 20,0 5 3 9 5 E 1015,6 31 0 0,0
18.09.2018 03:00:00 19,8 16,1 15,6 22,2 20,0 9 5 18 10 SSE 1015,5 27 0 0,0
18.09.2018 02:00:00 18,2 14,7 15,2 22,2 20,0 3 2 5 3 NE 1015,1 39 0 0,0
18.09.2018 01:00:00 19,3 14,3 16,7 22,3 20,0 4 2 10 6 E 1015,0 40 0 0,0
18.09.2018 00:00:00 20,6 13,8 17,2 22,3 20,0 4 2 10 5 SE 1014,1 43 0 0,0
17.09.2018 23:00:00 21,7 13,6 18,2 22,2 20,0 6 3 16 9 E 1014,1 42 0 0,0
17.09.2018 22:00:00 23,5 14,8 21,0 22,2 20,0 11 6 19 11 SE 1013,9 41 0 0,0
17.09.2018 21:00:00 25,9 16,2 23,6 22,1 20,0 13 7 24 13 SE 1013,4 38 0 0,0
17.09.2018 20:00:00 28,3 17,2 25,8 21,9 19,9 9 5 13 7 E 1012,3 40 44 0,0
17.09.2018 19:00:00 30,9 16,1 32,4 21,8 20,0 7 4 14 8 E 1012,1 48 60 0,0
17.09.2018 18:00:00 32,0 14,6 36,0 21,7 20,0 10 5 19 11 ENE 1012,5 34 60 0,0
17.09.2018 17:00:00 32,4 15,0 37,6 21,5 20,0 9 5 22 12 E 1013,0 38 60 0,0
17.09.2018 16:00:00 32,7 16,5 39,4 21,4 20,0 7 4 20 11 ENE 1013,6 36 60 0,0
17.09.2018 15:00:00 31,8 16,5 38,3 21,3 19,9 7 4 22 12 NE 1014,2 25 60 0,0
17.09.2018 14:00:00 30,0 16,8 37,2 21,3 19,9 4 2 18 10 NE 1014,9 28 60 0,0
17.09.2018 13:00:00 28,3 16,9 35,4 21,2 19,9 7 4 15 8 E 1015,5 20 60 0,0
17.09.2018 12:00:00 26,2 17,0 31,5 21,3 20,0 9 5 16 9 E 1016,3 31 60 0,0
17.09.2018 11:00:00 23,9 17,4 28,3 21,3 19,9 7 4 16 9 E 1016,9 19 60 0,0
17.09.2018 10:00:00 21,2 17,4 19,9 21,4 19,9 8 4 16 8 ESE 1017,5 16 41 0,0
17.09.2018 09:00:00 18,3 17,1 15,3 21,4 20,0 7 4 12 6 E 1017,9 11 30 0,2
17.09.2018 08:00:00 17,0 16,2 14,9 21,5 20,0 5 3 9 5 ESE 1018,3 5 0 0,0
17.09.2018 07:00:00 17,4 16,4 16,3 21,5 20,0 6 3 13 7 E 1018,5 9 0 0,0
17.09.2018 06:00:00 17,9 17,1 17,1 21,6 20,0 8 4 11 6 ESE 1018,7 10 0 0,0
17.09.2018 05:00:00 18,0 17,2 16,5 21,6 20,0 5 3 8 4 E 1019,1 12 0 0,0
17.09.2018 04:00:00 18,2 17,0 17,2 21,6 20,0 4 2 9 5 SE 1019,7 9 0 0,0
17.09.2018 03:00:00 18,4 17,6 18,1 21,7 20,0 0 0 7 4 N 1020,1 8 0 0,0
17.09.2018 02:00:00 18,2 17,4 17,6 21,7 20,0 2 1 9 5 N 1020,5 9 0 0,0
17.09.2018 01:00:00 17,7 16,9 14,4 21,8 20,0 5 3 12 7 WNW 1020,9 8 0 0,0
17.09.2018 00:00:00 17,7 16,2 14,6 21,7 20,0 3 2 5 3 WNW 1021,1 2,0 0 0,0
16.09.2018 23:00:00 19,2 17,2 15,9 21,7 19,9 4 2 9 5 SSW 1021,1 14 0 0,0
16.09.2018 22:00:00 19,5 17,1 16,1 21,7 20,0 4 2 12 7 SW 1021,4 21 0 0,0
16.09.2018 21:00:00 19,8 17,0 18,3 21,6 20,0 10 6 23 13 W 1020,8 23 0 0,0
16.09.2018 20:00:00 21,6 17,8 20,8 21,5 20,0 16 9 26 14 W 1020,1 18 27 0,0
16.09.2018 19:00:00 24,1 18,3 24,9 21,4 20,0 18 10 29 16 WNW 1019,3 18 14 0,0
16.09.2018 18:00:00 26,5 18,6 29,1 21,2 20,0 18 10 29 16 WNW 1018,8 38 50 0,0
16.09.2018 17:00:00 28,0 17,8 30,7 21,0 20,0 13 7 23 12 NW 1018,6 31 53 0,0
16.09.2018 16:00:00 28,3 18,1 35,7 20,9 20,0 11 6 27 14 WNW 1018,8 59 60 0,0
16.09.2018 15:00:00 28,0 17,2 35,8 20,8 20,0 12 6 24 13 NW 1018,8 47 60 0,0
16.09.2018 14:00:00 27,6 16,6 35,3 20,8 20,0 13 7 34 18 NW 1019,2 55 60 0,0
16.09.2018 13:00:00 27,4 14,4 34,1 20,8 20,0 6 3 15 8 WSW 1019,3 55 60 0,0
16.09.2018 12:00:00 25,7 15,1 31,4 20,8 20,0 7 4 16 9 WSW 1019,7 49 60 0,0
16.09.2018 11:00:00 22,9 15,0 27,9 20,9 20,0 6 3 12 7 S 1019,7 47 60 0,0
16.09.2018 10:00:00 19,9 14,3 22,9 21,0 20,0 6 3 11 6 SE 1019,8 50 60 0,0
16.09.2018 09:00:00 16,9 13,6 13,5 21,1 20,0 7 4 14 7 ESE 1019,6 46 58 0,0
16.09.2018 08:00:00 14,1 12,5 12,1 21,1 20,0 9 5 13 7 ESE 1019,5 32 0 0,0
16.09.2018 07:00:00 14,2 12,6 11,2 21,2 20,0 6 3 10 6 ESE 1019,2 29 0 0,0
16.09.2018 06:00:00 14,6 13,1 12,3 21,3 20,0 11 6 13 7 ESE 1018,8 19 0 0,0
16.09.2018 05:00:00 14,6 13,3 11,3 21,4 20,0 6 4 10 6 ESE 1018,7 24 0 0,0

tt = Température de l'air
td = dewpoint
tt 5cm = Température de l'air 5cm
tt -20cm = Température de l'air -20cm
tt -100cm = Température de l'air -100cm
ff = Vitesse du vent
fx = gusts
dd = Direction du vent
ppp = reduced air pressure
vv = visibility
sd = Ensoleillement
rr = Quantités de précipitations

stations d'obs. à proximité